Flag Weather past 2 weeks in Saguenay, Quebec, Canada

Now
35 °F

Chilly.


Feels Like: 24 °F
Forecast: 28 / 32 °F
Wind: 16 mph from Southwest

Location: Jonquiere Airport

Current Time: Nov 23, 2014 at 3:48:57 AM

Latest Report: Nov 23, 2014 at 3:00 AM


Visibility: N/A

Pressure: 29.79 "Hg

Humidity: 82%

Dew point: 29 °F

Location of SaguenayLocation

Historic Weather in Saguenay — Graph

°F

Saguenay temperature yesterday

Maximum temperature yesterday: 33 °F (at 11:00 PM)
Minimum temperature yesterday: 8 °F (at 4:00 AM)
Average temperature yesterday: 20 °F

Past Weeks' High & Low Weather Summary

 TemperatureHumidityPressure
High38 °F (Nov 9, 10:00 AM)100% (Nov 16, 8:00 PM)30.28 "Hg (Nov 16, 8:00 PM)
Low8 °F (Nov 22, 4:00 AM)46% (Nov 10, 4:00 PM)29.18 "Hg (Nov 18, 9:00 AM)
Average25 °F77%29.88 "Hg
* Reported Nov 8 2:00 AM — Nov 23 2:00 AM, Saguenay, Weather by CustomWeather, © 2014

Note: Actual official high and low records may vary slightly from our data, if they occured in-between our weather recording intervals... More about our weather records

Advertising

Saguenay weather history for previous 24 hours

 ConditionsComfort  
Time TempWeatherWind HumidityBarometerVisibility
2:00 AM
Nov 23
35 °FChilly.18 mph81%29.78 "HgN/A
1:00 AM34 °FChilly.16 mph81%29.75 "HgN/A
12:00 AM33 °FChilly.16 mph83%29.74 "HgN/A
11:00 PM
Nov 22
33 °FChilly.16 mph84%29.73 "HgN/A
10:00 PM31 °FChilly.16 mph86%29.72 "HgN/A
9:00 PM32 °FChilly.18 mph82%29.72 "HgN/A
8:00 PM32 °FChilly.20 mph80%29.72 "HgN/A
7:00 PM31 °FChilly.20 mph80%29.72 "HgN/A
6:00 PM31 °FChilly.15 mph79%29.72 "HgN/A
5:00 PM30 °FChilly.16 mph78%29.72 "HgN/A
4:00 PM30 °FChilly.16 mph76%29.74 "HgN/A
3:00 PM28 °FChilly.14 mph77%29.75 "HgN/A
2:00 PM25 °FChilly.5 mph87%29.78 "HgN/A
1:00 PM26 °FChilly.7 mph85%29.80 "HgN/A
12:00 PM20 °FCold.1 mph92%29.82 "HgN/A
11:00 AM17 °FCold.5 mph91%29.86 "HgN/A
10:00 AM16 °FCold.5 mph91%29.89 "HgN/A
9:00 AM14 °FCold.5 mph90%29.92 "HgN/A
8:00 AM12 °FCold.6 mph90%29.95 "HgN/A
7:00 AM10 °FFrigid.8 mph89%30.00 "HgN/A
6:00 AM9 °FFrigid.8 mph85%30.06 "HgN/A
5:00 AM9 °FFrigid.6 mph78%30.11 "HgN/A
4:00 AM8 °FFrigid.6 mph79%30.14 "HgN/A
3:00 AM8 °FFrigid.6 mph76%30.16 "HgN/A
Weather by CustomWeather, © 2014

See weather overviewHow to use our weather pages